Time,TemperatureF,DewpointF,PressureIn,WindDirection,WindDirectionDegrees,WindSpeedMPH,WindSpeedGustMPH,Humidity,HourlyPrecipIn,Conditions,Clouds,dailyrainin,SoftwareType,DateUTC
2013-02-22 00:00:00,40.5,23.3,30.15,ENE,57,5.0,5.0,50,0.00,,,0.00,Wunderground v.1.15,2013-02-22 05:00:00,
2013-02-22 00:05:00,40.5,22.8,30.14,ENE,61,6.0,6.0,49,0.00,,,0.00,Wunderground v.1.15,2013-02-22 05:05:00,
2013-02-22 00:10:00,40.4,23.2,30.14,ENE,61,6.0,6.0,50,0.00,,,0.00,Wunderground v.1.15,2013-02-22 05:10:00,
2013-02-22 00:15:00,40.4,23.2,30.14,ENE,62,6.0,6.0,50,0.00,,,0.00,Wunderground v.1.15,2013-02-22 05:15:00,
2013-02-22 00:20:00,40.3,23.1,30.14,East,84,6.0,6.0,50,0.00,,,0.00,Wunderground v.1.15,2013-02-22 05:20:00,
2013-02-22 00:30:00,40.1,22.9,30.14,East,82,3.0,5.0,50,0.00,,,0.00,Wunderground v.1.15,2013-02-22 05:30:00,
2013-02-22 00:35:00,40.0,22.8,30.14,NE,55,4.0,5.0,50,0.00,,,0.00,Wunderground v.1.15,2013-02-22 05:35:00,
2013-02-22 00:40:00,40.0,22.4,30.14,NE,40,5.0,5.0,49,0.00,,,0.00,Wunderground v.1.15,2013-02-22 05:40:00,
2013-02-22 00:45:00,40.0,22.4,30.14,NE,55,5.0,5.0,49,0.00,,,0.00,Wunderground v.1.15,2013-02-22 05:45:00,
2013-02-22 00:55:00,39.9,21.8,30.17,ENE,69,4.0,4.0,48,0.00,,,0.00,Wunderground v.1.15,2013-02-22 05:55:00,
2013-02-22 01:00:00,39.9,21.8,30.18,ENE,76,3.0,3.0,48,0.00,,,0.00,Wunderground v.1.15,2013-02-22 06:00:00,
2013-02-22 01:05:00,39.9,22.7,30.19,NE,55,1.0,3.0,50,0.00,,,0.00,Wunderground v.1.15,2013-02-22 06:05:00,
2013-02-22 01:10:00,39.9,21.8,30.19,ENE,64,2.0,4.0,48,0.00,,,0.00,Wunderground v.1.15,2013-02-22 06:10:00,
2013-02-22 01:15:00,39.9,22.3,30.20,NE,43,2.0,4.0,49,0.00,,,0.00,Wunderground v.1.15,2013-02-22 06:15:00,
2013-02-22 01:25:00,39.8,22.2,30.21,NE,56,2.0,2.0,49,0.00,,,0.00,Wunderground v.1.15,2013-02-22 06:25:00,
2013-02-22 01:30:00,39.8,22.2,30.22,NE,56,1.0,1.0,49,0.00,,,0.00,Wunderground v.1.15,2013-02-22 06:30:00,
2013-02-22 01:40:00,39.8,23.6,30.24,NE,53,0.0,1.0,52,0.00,,,0.00,Wunderground v.1.15,2013-02-22 06:40:00,
2013-02-22 01:45:00,39.8,24.5,30.25,NE,53,0.0,1.0,54,0.00,,,0.00,Wunderground v.1.15,2013-02-22 06:45:00,
2013-02-22 01:55:00,39.7,22.6,30.25,NNE,13,1.0,1.0,50,0.00,,,0.00,Wunderground v.1.15,2013-02-22 06:55:00,
2013-02-22 02:00:00,39.6,22.5,30.24,NNE,30,2.0,2.0,50,0.00,,,0.00,Wunderground v.1.15,2013-02-22 07:00:00,
2013-02-22 02:10:00,39.4,21.8,30.23,NE,51,2.0,2.0,49,0.00,,,0.00,Wunderground v.1.15,2013-02-22 07:10:00,
2013-02-22 02:15:00,39.3,22.2,30.23,NE,52,2.0,2.0,50,0.00,,,0.00,Wunderground v.1.15,2013-02-22 07:15:00,
2013-02-22 02:25:00,39.2,22.6,30.22,NNE,30,2.0,3.0,51,0.00,,,0.00,Wunderground v.1.15,2013-02-22 07:25:00,
2013-02-22 02:30:00,39.1,22.0,30.22,NE,55,2.0,2.0,50,0.00,,,0.00,Wunderground v.1.15,2013-02-22 07:30:00,
2013-02-22 02:35:00,39.0,21.9,30.22,NE,49,2.0,2.0,50,0.00,,,0.00,Wunderground v.1.15,2013-02-22 07:35:00,
2013-02-22 02:40:00,38.9,21.8,30.22,NNE,26,2.0,4.0,50,0.00,,,0.00,Wunderground v.1.15,2013-02-22 07:40:00,
2013-02-22 02:45:00,38.9,22.3,30.21,ENE,72,2.0,4.0,51,0.00,,,0.00,Wunderground v.1.15,2013-02-22 07:45:00,
2013-02-22 02:50:00,38.7,23.0,30.21,NE,55,2.0,2.0,53,0.00,,,0.00,Wunderground v.1.15,2013-02-22 07:50:00,
2013-02-22 02:55:00,38.4,23.6,30.21,ENE,70,2.0,2.0,55,0.00,,,0.00,Wunderground v.1.15,2013-02-22 07:55:00,
2013-02-22 03:05:00,37.9,24.4,30.21,ENE,61,2.0,12.0,58,0.00,,,0.00,Wunderground v.1.15,2013-02-22 08:05:00,
2013-02-22 03:10:00,37.7,24.6,30.21,ENE,65,2.0,12.0,59,0.00,,,0.00,Wunderground v.1.15,2013-02-22 08:10:00,
2013-02-22 03:15:00,37.5,25.3,30.21,NE,41,2.0,12.0,61,0.00,,,0.00,Wunderground v.1.15,2013-02-22 08:15:00,
2013-02-22 03:20:00,37.3,25.1,30.21,NE,34,2.0,12.0,61,0.00,,,0.00,Wunderground v.1.15,2013-02-22 08:20:00,
2013-02-22 03:25:00,37.1,26.4,30.21,NE,46,2.0,12.0,65,0.00,,,0.00,Wunderground v.1.15,2013-02-22 08:25:00,
2013-02-22 03:35:00,36.5,27.6,30.21,NE,40,2.0,12.0,70,0.00,,,0.01,Wunderground v.1.15,2013-02-22 08:35:00,
2013-02-22 03:40:00,36.1,28.6,30.21,NE,48,1.0,12.0,74,0.00,,,0.01,Wunderground v.1.15,2013-02-22 08:40:00,
2013-02-22 03:50:00,35.4,28.9,30.21,NNE,32,2.0,12.0,77,0.00,,,0.02,Wunderground v.1.15,2013-02-22 08:50:00,
2013-02-22 03:55:00,35.1,29.2,30.21,NE,36,2.0,12.0,79,0.07,,,0.03,Wunderground v.1.15,2013-02-22 08:55:00,
2013-02-22 04:00:00,34.8,29.3,30.22,NNE,29,2.0,2.0,80,0.07,,,0.03,Wunderground v.1.15,2013-02-22 09:00:00,
2013-02-22 04:10:00,34.6,30.0,30.22,NNE,29,0.0,12.0,83,0.10,,,0.05,Wunderground v.1.15,2013-02-22 09:10:00,
2013-02-22 04:15:00,34.4,29.8,30.22,NNE,29,0.0,12.0,83,0.08,,,0.05,Wunderground v.1.15,2013-02-22 09:15:00,
2013-02-22 04:20:00,34.3,29.4,30.22,NNE,30,0.0,12.0,82,0.07,,,0.06,Wunderground v.1.15,2013-02-22 09:20:00,
2013-02-22 04:25:00,34.0,29.7,30.21,NE,53,1.0,12.0,84,0.09,,,0.07,Wunderground v.1.15,2013-02-22 09:25:00,
2013-02-22 04:30:00,33.7,29.7,30.21,ENE,61,1.0,12.0,85,0.08,,,0.07,Wunderground v.1.15,2013-02-22 09:30:00,
2013-02-22 04:40:00,33.5,30.0,30.21,NE,50,1.0,12.0,87,0.09,,,0.09,Wunderground v.1.15,2013-02-22 09:40:00,
2013-02-22 04:45:00,33.5,30.0,30.22,NE,46,1.0,12.0,87,0.09,,,0.09,Wunderground v.1.15,2013-02-22 09:45:00,
2013-02-22 04:50:00,33.4,29.7,30.22,North,355,1.0,12.0,86,0.05,,,0.09,Wunderground v.1.15,2013-02-22 09:50:00,
2013-02-22 04:55:00,33.3,29.6,30.22,NNE,26,1.0,12.0,86,0.04,,,0.10,Wunderground v.1.15,2013-02-22 09:55:00,
2013-02-22 05:00:00,33.2,29.5,30.21,NNE,32,1.0,12.0,86,0.04,,,0.10,Wunderground v.1.15,2013-02-22 10:00:00,
2013-02-22 05:05:00,33.1,29.7,30.20,NNE,29,2.0,12.0,87,0.07,,,0.11,Wunderground v.1.15,2013-02-22 10:05:00,
2013-02-22 05:15:00,32.7,29.5,30.19,NE,38,2.0,12.0,88,0.05,,,0.12,Wunderground v.1.15,2013-02-22 10:15:00,
2013-02-22 05:20:00,32.6,29.4,30.19,NE,55,2.0,12.0,88,0.05,,,0.12,Wunderground v.1.15,2013-02-22 10:20:00,
2013-02-22 05:25:00,32.5,29.3,30.19,ENE,59,2.0,12.0,88,0.06,,,0.13,Wunderground v.1.15,2013-02-22 10:25:00,
2013-02-22 05:30:00,32.4,29.2,30.18,NE,53,3.0,3.0,88,0.06,,,0.13,Wunderground v.1.15,2013-02-22 10:30:00,
2013-02-22 05:35:00,32.4,29.2,30.18,East,97,3.0,3.0,88,0.06,,,0.14,Wunderground v.1.15,2013-02-22 10:35:00,
2013-02-22 05:40:00,32.3,29.1,30.18,East,80,4.0,4.0,88,0.09,,,0.15,Wunderground v.1.15,2013-02-22 10:40:00,
2013-02-22 05:50:00,32.2,29.0,30.16,East,84,4.0,4.0,88,0.05,,,0.15,Wunderground v.1.15,2013-02-22 10:50:00,
2013-02-22 05:55:00,32.1,28.9,30.15,East,87,6.0,6.0,88,0.04,,,0.15,Wunderground v.1.15,2013-02-22 10:55:00,
2013-02-22 06:05:00,31.9,29.0,30.15,ENE,69,6.0,7.0,89,0.10,,,0.17,Wunderground v.1.15,2013-02-22 11:05:00,
2013-02-22 06:10:00,31.9,29.0,30.15,ENE,76,5.0,7.0,89,0.07,,,0.17,Wunderground v.1.15,2013-02-22 11:10:00,
2013-02-22 06:20:00,31.9,29.0,30.14,NE,50,5.0,5.0,89,0.00,,,0.17,Wunderground v.1.15,2013-02-22 11:20:00,
2013-02-22 06:25:00,31.9,28.8,30.14,East,88,4.0,7.0,88,0.00,,,0.17,Wunderground v.1.15,2013-02-22 11:25:00,
2013-02-22 06:30:00,31.9,29.0,30.14,ESE,105,5.0,8.0,89,0.00,,,0.17,Wunderground v.1.15,2013-02-22 11:30:00,
2013-02-22 06:35:00,31.9,28.8,30.13,ENE,76,5.0,8.0,88,0.00,,,0.17,Wunderground v.1.15,2013-02-22 11:35:00,
2013-02-22 06:40:00,31.8,28.7,30.13,East,89,6.0,6.0,88,0.00,,,0.17,Wunderground v.1.15,2013-02-22 11:40:00,
2013-02-22 06:45:00,31.8,28.9,30.14,ENE,62,4.0,6.0,89,0.00,,,0.17,Wunderground v.1.15,2013-02-22 11:45:00,
2013-02-22 06:55:00,31.8,28.7,30.16,ENE,68,2.0,3.0,88,0.00,,,0.17,Wunderground v.1.15,2013-02-22 11:55:00,
2013-02-22 07:00:00,31.9,28.8,30.17,ENE,72,2.0,2.0,88,0.00,,,0.17,Wunderground v.1.15,2013-02-22 12:00:00,
2013-02-22 07:05:00,31.9,28.5,30.19,SW,234,1.0,3.0,87,0.00,,,0.17,Wunderground v.1.15,2013-02-22 12:05:00,
2013-02-22 07:10:00,32.0,28.8,30.21,West,272,1.0,3.0,88,0.00,,,0.17,Wunderground v.1.15,2013-02-22 12:10:00,
2013-02-22 07:15:00,32.1,29.2,30.21,NW,321,3.0,3.0,89,0.00,,,0.17,Wunderground v.1.15,2013-02-22 12:15:00,
2013-02-22 07:25:00,32.1,29.2,30.20,SSW,208,1.0,3.0,89,0.00,,,0.17,Wunderground v.1.15,2013-02-22 12:25:00,
2013-02-22 07:30:00,32.2,29.3,30.19,SSW,198,1.0,3.0,89,0.00,,,0.17,Wunderground v.1.15,2013-02-22 12:30:00,
2013-02-22 07:35:00,32.2,29.3,30.19,SSW,198,0.0,3.0,89,0.00,,,0.17,Wunderground v.1.15,2013-02-22 12:35:00,
2013-02-22 07:40:00,32.3,29.7,30.21,SSW,197,1.0,1.0,90,0.00,,,0.17,Wunderground v.1.15,2013-02-22 12:40:00,
2013-02-22 07:45:00,32.3,29.7,30.20,SSW,197,1.0,3.0,90,0.00,,,0.17,Wunderground v.1.15,2013-02-22 12:45:00,
2013-02-22 07:50:00,32.3,29.7,30.21,SSW,197,1.0,3.0,90,0.00,,,0.17,Wunderground v.1.15,2013-02-22 12:50:00,
2013-02-22 08:00:00,32.4,29.5,30.21,SSW,197,0.0,3.0,89,0.00,,,0.17,Wunderground v.1.15,2013-02-22 13:00:00,
2013-02-22 08:05:00,32.4,29.5,30.21,SSW,197,0.0,3.0,89,0.00,,,0.17,Wunderground v.1.15,2013-02-22 13:05:00,
2013-02-22 08:10:00,32.5,29.6,30.22,SSW,197,0.0,3.0,89,0.00,,,0.17,Wunderground v.1.15,2013-02-22 13:10:00,
2013-02-22 08:15:00,32.8,29.9,30.22,SSW,205,1.0,3.0,89,0.00,,,0.17,Wunderground v.1.15,2013-02-22 13:15:00,
2013-02-22 08:20:00,32.8,29.6,30.23,SSW,210,1.0,1.0,88,0.00,,,0.17,Wunderground v.1.15,2013-02-22 13:20:00,
2013-02-22 08:25:00,33.0,29.8,30.23,WNW,298,1.0,1.0,88,0.00,,,0.17,Wunderground v.1.15,2013-02-22 13:25:00,
2013-02-22 08:34:00,33.2,29.8,30.22,North,355,2.0,2.0,87,0.00,,,0.17,Wunderground v.1.15,2013-02-22 13:34:00,
2013-02-22 08:40:00,33.2,29.5,30.22,NE,36,1.0,1.0,86,0.00,,,0.17,Wunderground v.1.15,2013-02-22 13:40:00,
2013-02-22 08:44:00,33.3,29.8,30.21,NE,42,1.0,1.0,87,0.00,,,0.17,Wunderground v.1.15,2013-02-22 13:44:00,
2013-02-22 08:49:00,33.4,30.2,30.21,NE,42,1.0,1.0,88,0.00,,,0.17,Wunderground v.1.15,2013-02-22 13:49:00,
2013-02-22 08:55:00,33.4,30.2,30.22,NE,40,1.0,1.0,88,0.00,,,0.17,Wunderground v.1.15,2013-02-22 13:55:00,
2013-02-22 09:05:00,33.5,30.0,30.22,NW,323,1.0,1.0,87,0.00,,,0.17,Wunderground v.1.15,2013-02-22 14:05:00,
2013-02-22 09:10:00,33.5,29.8,30.23,NW,323,1.0,1.0,86,0.00,,,0.17,Wunderground v.1.15,2013-02-22 14:10:00,
2013-02-22 09:15:00,33.7,30.2,30.23,North,360,1.0,2.0,87,0.00,,,0.18,Wunderground v.1.15,2013-02-22 14:15:00,
2013-02-22 09:24:00,33.8,30.3,30.23,NNW,330,0.0,1.0,87,0.00,,,0.18,Wunderground v.1.15,2013-02-22 14:24:00,
2013-02-22 09:30:00,33.8,30.1,30.23,NNW,330,0.0,0.0,86,0.00,,,0.18,Wunderground v.1.15,2013-02-22 14:30:00,
2013-02-22 09:35:00,33.9,30.2,30.21,NNW,331,0.0,1.0,86,0.00,,,0.18,Wunderground v.1.15,2013-02-22 14:35:00,
2013-02-22 09:40:00,34.0,30.0,30.22,WNW,286,0.0,2.0,85,0.00,,,0.18,Wunderground v.1.15,2013-02-22 14:40:00,
2013-02-22 09:50:00,34.2,30.2,30.22,WSW,258,1.0,1.0,85,0.00,,,0.18,Wunderground v.1.15,2013-02-22 14:50:00,
2013-02-22 09:55:00,34.2,30.2,30.20,East,96,1.0,2.0,85,0.00,,,0.18,Wunderground v.1.15,2013-02-22 14:55:00,
2013-02-22 10:00:00,34.3,30.5,30.21,East,95,1.0,2.0,86,0.00,,,0.18,Wunderground v.1.15,2013-02-22 15:00:00,
2013-02-22 10:05:00,34.3,30.3,30.20,ESE,123,2.0,4.0,85,0.00,,,0.18,Wunderground v.1.15,2013-02-22 15:05:00,
2013-02-22 10:14:00,34.4,30.6,30.19,NE,54,3.0,4.0,86,0.00,,,0.18,Wunderground v.1.15,2013-02-22 15:14:00,
2013-02-22 10:20:00,34.5,30.7,30.19,ENE,69,2.0,3.0,86,0.00,,,0.18,Wunderground v.1.15,2013-02-22 15:20:00,
2013-02-22 10:24:00,34.7,30.9,30.19,NE,40,2.0,3.0,86,0.00,,,0.18,Wunderground v.1.15,2013-02-22 15:24:00,
2013-02-22 10:30:00,34.8,31.3,30.20,NE,55,2.0,3.0,87,0.00,,,0.18,Wunderground v.1.15,2013-02-22 15:30:00,
2013-02-22 10:34:00,34.9,31.4,30.19,East,101,1.0,6.0,87,0.00,,,0.18,Wunderground v.1.15,2013-02-22 15:34:00,
2013-02-22 10:40:00,35.0,31.2,30.19,East,79,2.0,3.0,86,0.00,,,0.18,Wunderground v.1.15,2013-02-22 15:40:00,
2013-02-22 10:45:00,35.0,31.2,30.20,ENE,71,3.0,3.0,86,0.00,,,0.18,Wunderground v.1.15,2013-02-22 15:45:00,
2013-02-22 10:50:00,35.1,31.3,30.20,East,96,4.0,6.0,86,0.00,,,0.18,Wunderground v.1.15,2013-02-22 15:50:00,
2013-02-22 10:55:00,35.2,30.9,30.19,East,94,5.0,6.0,84,0.00,,,0.18,Wunderground v.1.15,2013-02-22 15:55:00,
2013-02-22 11:00:00,35.3,30.9,30.19,East,82,5.0,6.0,84,0.00,,,0.18,Wunderground v.1.15,2013-02-22 16:00:00,
2013-02-22 11:05:00,35.5,31.7,30.19,ESE,112,5.0,7.0,86,0.00,,,0.18,Wunderground v.1.15,2013-02-22 16:05:00,
2013-02-22 11:15:00,35.6,31.5,30.20,East,83,5.0,5.0,85,0.00,,,0.18,Wunderground v.1.15,2013-02-22 16:15:00,
2013-02-22 11:20:00,35.8,31.4,30.20,SE,143,4.0,4.0,84,0.00,,,0.18,Wunderground v.1.15,2013-02-22 16:20:00,
2013-02-22 11:30:00,36.2,31.8,30.20,ESE,107,3.0,5.0,84,0.00,,,0.18,Wunderground v.1.15,2013-02-22 16:30:00,
2013-02-22 11:35:00,36.3,31.6,30.20,ENE,73,4.0,5.0,83,0.00,,,0.18,Wunderground v.1.15,2013-02-22 16:35:00,
2013-02-22 11:40:00,36.4,31.7,30.20,ENE,75,5.0,5.0,83,0.00,,,0.18,Wunderground v.1.15,2013-02-22 16:40:00,
2013-02-22 11:50:00,36.5,31.5,30.19,East,80,5.0,5.0,82,0.00,,,0.18,Wunderground v.1.15,2013-02-22 16:50:00,
2013-02-22 11:55:00,36.5,31.8,30.19,East,86,6.0,6.0,83,0.00,,,0.18,Wunderground v.1.15,2013-02-22 16:55:00,
2013-02-22 12:04:00,36.8,31.8,30.18,ENE,62,6.0,6.0,82,0.00,,,0.18,Wunderground v.1.15,2013-02-22 17:04:00,
2013-02-22 12:10:00,36.8,31.8,30.19,ENE,65,5.0,5.0,82,0.00,,,0.18,Wunderground v.1.15,2013-02-22 17:10:00,
2013-02-22 12:14:00,37.0,32.3,30.18,East,84,5.0,5.0,83,0.00,,,0.18,Wunderground v.1.15,2013-02-22 17:14:00,
2013-02-22 12:20:00,37.2,32.5,30.17,East,90,5.0,9.0,83,0.00,,,0.18,Wunderground v.1.15,2013-02-22 17:20:00,
2013-02-22 12:25:00,37.3,32.0,30.18,SE,138,5.0,9.0,81,0.00,,,0.18,Wunderground v.1.15,2013-02-22 17:25:00,
2013-02-22 12:30:00,37.4,32.1,30.17,ESE,118,4.0,4.0,81,0.00,,,0.18,Wunderground v.1.15,2013-02-22 17:30:00,
2013-02-22 12:35:00,37.5,32.2,30.18,East,80,5.0,5.0,81,0.00,,,0.18,Wunderground v.1.15,2013-02-22 17:35:00,
2013-02-22 12:40:00,37.7,32.4,30.17,SE,126,5.0,5.0,81,0.00,,,0.18,Wunderground v.1.15,2013-02-22 17:40:00,
2013-02-22 12:45:00,37.6,32.0,30.17,East,84,4.0,5.0,80,0.00,,,0.18,Wunderground v.1.15,2013-02-22 17:45:00,
2013-02-22 12:55:00,37.8,32.5,30.17,South,178,4.0,5.0,81,0.00,,,0.18,Wunderground v.1.15,2013-02-22 17:55:00,
2013-02-22 13:05:00,38.0,32.4,30.16,ENE,76,3.0,5.0,80,0.00,,,0.18,Wunderground v.1.15,2013-02-22 18:05:00,
2013-02-22 13:10:00,37.9,32.0,30.16,ENE,67,2.0,2.0,79,0.00,,,0.18,Wunderground v.1.15,2013-02-22 18:10:00,
2013-02-22 13:15:00,37.9,32.3,30.16,SE,143,1.0,9.0,80,0.00,,,0.18,Wunderground v.1.15,2013-02-22 18:15:00,
2013-02-22 13:25:00,38.0,32.1,30.16,ESE,119,2.0,9.0,79,0.00,,,0.18,Wunderground v.1.15,2013-02-22 18:25:00,
2013-02-22 13:30:00,38.0,32.4,30.16,East,94,2.0,2.0,80,0.00,,,0.18,Wunderground v.1.15,2013-02-22 18:30:00,
2013-02-22 13:35:00,38.0,32.1,30.15,East,92,1.0,9.0,79,0.00,,,0.18,Wunderground v.1.15,2013-02-22 18:35:00,
2013-02-22 13:40:00,38.2,32.6,30.15,East,92,1.0,1.0,80,0.00,,,0.18,Wunderground v.1.15,2013-02-22 18:40:00,
2013-02-22 13:45:00,38.3,32.4,30.15,ESE,123,1.0,4.0,79,0.00,,,0.18,Wunderground v.1.15,2013-02-22 18:45:00,
2013-02-22 13:50:00,38.2,32.9,30.14,East,101,2.0,9.0,81,0.00,,,0.18,Wunderground v.1.15,2013-02-22 18:50:00,
2013-02-22 14:00:00,38.3,33.9,30.12,East,91,3.0,3.0,84,0.00,,,0.18,Wunderground v.1.15,2013-02-22 19:00:00,
2013-02-22 14:05:00,38.3,33.6,30.12,ENE,71,3.0,4.0,83,0.00,,,0.18,Wunderground v.1.15,2013-02-22 19:05:00,
2013-02-22 14:10:00,38.4,33.4,30.11,ENE,67,3.0,9.0,82,0.00,,,0.18,Wunderground v.1.15,2013-02-22 19:10:00,
2013-02-22 14:15:00,38.5,33.5,30.11,ENE,72,4.0,9.0,82,0.00,,,0.18,Wunderground v.1.15,2013-02-22 19:15:00,
2013-02-22 14:20:00,38.5,33.2,30.11,ENE,66,4.0,4.0,81,0.00,,,0.18,Wunderground v.1.15,2013-02-22 19:20:00,
2013-02-22 14:30:00,38.6,33.0,30.12,East,80,1.0,1.0,80,0.00,,,0.18,Wunderground v.1.15,2013-02-22 19:30:00,
2013-02-22 14:34:00,38.6,33.0,30.12,ENE,74,2.0,4.0,80,0.00,,,0.18,Wunderground v.1.15,2013-02-22 19:34:00,
2013-02-22 14:39:00,38.6,33.0,30.11,East,100,3.0,3.0,80,0.00,,,0.18,Wunderground v.1.15,2013-02-22 19:39:00,
2013-02-22 14:45:00,38.6,32.6,30.12,East,94,2.0,3.0,79,0.00,,,0.18,Wunderground v.1.15,2013-02-22 19:45:00,
2013-02-22 14:50:00,38.7,33.1,30.12,ENE,72,1.0,2.0,80,0.00,,,0.18,Wunderground v.1.15,2013-02-22 19:50:00,
2013-02-22 14:55:00,38.8,33.2,30.12,ENE,71,2.0,3.0,80,0.00,,,0.18,Wunderground v.1.15,2013-02-22 19:55:00,
2013-02-22 15:05:00,38.8,32.8,30.12,NE,55,1.0,2.0,79,0.00,,,0.18,Wunderground v.1.15,2013-02-22 20:05:00,
2013-02-22 15:10:00,38.9,32.6,30.12,ENE,67,2.0,2.0,78,0.00,,,0.18,Wunderground v.1.15,2013-02-22 20:10:00,
2013-02-22 15:15:00,38.9,32.6,30.13,ENE,69,2.0,2.0,78,0.00,,,0.18,Wunderground v.1.15,2013-02-22 20:15:00,
2013-02-22 15:20:00,39.0,33.0,30.12,NE,37,1.0,1.0,79,0.00,,,0.18,Wunderground v.1.15,2013-02-22 20:20:00,
2013-02-22 15:25:00,39.1,32.8,30.12,NE,48,1.0,2.0,78,0.00,,,0.18,Wunderground v.1.15,2013-02-22 20:25:00,
2013-02-22 15:35:00,38.9,33.3,30.12,NE,48,1.0,1.0,80,0.00,,,0.19,Wunderground v.1.15,2013-02-22 20:35:00,
2013-02-22 15:40:00,38.9,34.2,30.11,NE,52,1.0,1.0,83,0.00,,,0.19,Wunderground v.1.15,2013-02-22 20:40:00,
2013-02-22 15:45:00,38.8,34.4,30.11,NE,52,1.0,1.0,84,0.00,,,0.19,Wunderground v.1.15,2013-02-22 20:45:00,
2013-02-22 15:50:00,38.7,34.3,30.11,NE,48,1.0,2.0,84,0.00,,,0.19,Wunderground v.1.15,2013-02-22 20:50:00,
2013-02-22 15:55:00,38.7,34.6,30.11,NE,46,1.0,2.0,85,0.00,,,0.19,Wunderground v.1.15,2013-02-22 20:55:00,
2013-02-22 16:00:00,38.6,34.5,30.11,NE,46,1.0,1.0,85,0.00,,,0.19,Wunderground v.1.15,2013-02-22 21:00:00,
2013-02-22 16:10:00,38.6,34.5,30.12,NE,46,1.0,1.0,85,0.00,,,0.19,Wunderground v.1.15,2013-02-22 21:10:00,
2013-02-22 16:15:00,38.6,34.5,30.12,NE,46,0.0,5.0,85,0.00,,,0.19,Wunderground v.1.15,2013-02-22 21:15:00,
2013-02-22 16:20:00,38.7,34.6,30.11,NE,46,0.0,5.0,85,0.00,,,0.19,Wunderground v.1.15,2013-02-22 21:20:00,
2013-02-22 16:25:00,38.7,34.6,30.11,NE,46,0.0,5.0,85,0.00,,,0.19,Wunderground v.1.15,2013-02-22 21:25:00,
2013-02-22 16:35:00,38.8,35.0,30.10,East,84,1.0,5.0,86,0.00,,,0.19,Wunderground v.1.15,2013-02-22 21:35:00,
2013-02-22 16:40:00,38.8,35.3,30.10,ENE,73,2.0,2.0,87,0.00,,,0.19,Wunderground v.1.15,2013-02-22 21:40:00,
2013-02-22 16:45:00,38.7,35.2,30.11,ENE,73,1.0,5.0,87,0.00,,,0.19,Wunderground v.1.15,2013-02-22 21:45:00,
2013-02-22 16:50:00,38.7,35.2,30.10,ENE,73,0.0,5.0,87,0.00,,,0.20,Wunderground v.1.15,2013-02-22 21:50:00,
2013-02-22 16:55:00,38.6,35.4,30.10,NE,52,1.0,5.0,88,0.50,,,0.25,Wunderground v.1.15,2013-02-22 21:55:00,
2013-02-22 17:00:00,38.4,35.4,30.11,NNE,16,1.0,1.0,89,0.31,,,0.27,Wunderground v.1.15,2013-02-22 22:00:00,
2013-02-22 17:05:00,38.3,35.3,30.11,NW,304,1.0,5.0,89,0.10,,,0.28,Wunderground v.1.15,2013-02-22 22:05:00,
2013-02-22 17:15:00,38.0,35.3,30.10,ENE,67,1.0,5.0,90,0.06,,,0.28,Wunderground v.1.15,2013-02-22 22:15:00,
2013-02-22 17:20:00,37.9,35.2,30.10,ENE,67,0.0,5.0,90,0.04,,,0.28,Wunderground v.1.15,2013-02-22 22:20:00,
2013-02-22 17:25:00,37.9,35.5,30.10,ENE,66,0.0,5.0,91,0.00,,,0.28,Wunderground v.1.15,2013-02-22 22:25:00,
2013-02-22 17:30:00,37.9,35.5,30.09,NE,46,1.0,1.0,91,0.00,,,0.28,Wunderground v.1.15,2013-02-22 22:30:00,
2013-02-22 17:35:00,37.8,35.4,30.09,ENE,59,1.0,1.0,91,0.00,,,0.28,Wunderground v.1.15,2013-02-22 22:35:00,
2013-02-22 17:40:00,37.7,35.3,30.09,ENE,63,0.0,2.0,91,0.00,,,0.29,Wunderground v.1.15,2013-02-22 22:40:00,
2013-02-22 17:50:00,37.7,35.6,30.10,NNE,18,1.0,1.0,92,0.07,,,0.30,Wunderground v.1.15,2013-02-22 22:50:00,
2013-02-22 17:55:00,37.7,35.6,30.10,NNE,18,1.0,1.0,92,0.08,,,0.31,Wunderground v.1.15,2013-02-22 22:55:00,
2013-02-22 18:00:00,37.7,35.6,30.10,NNE,18,0.0,0.0,92,0.16,,,0.32,Wunderground v.1.15,2013-02-22 23:00:00,
2013-02-22 18:05:00,37.6,35.5,30.10,NNE,18,1.0,1.0,92,0.14,,,0.33,Wunderground v.1.15,2013-02-22 23:05:00,
2013-02-22 18:10:00,37.6,35.5,30.10,NNE,18,1.0,2.0,92,0.06,,,0.33,Wunderground v.1.15,2013-02-22 23:10:00,
2013-02-22 18:20:00,37.5,35.4,30.10,North,9,1.0,1.0,92,0.00,,,0.33,Wunderground v.1.15,2013-02-22 23:20:00,
2013-02-22 18:25:00,37.5,35.4,30.10,NW,323,1.0,4.0,92,0.00,,,0.33,Wunderground v.1.15,2013-02-22 23:25:00,
2013-02-22 18:35:00,37.4,35.6,30.10,North,9,1.0,4.0,93,0.00,,,0.33,Wunderground v.1.15,2013-02-22 23:35:00,
2013-02-22 18:40:00,37.4,35.6,30.09,NNE,31,2.0,2.0,93,0.00,,,0.33,Wunderground v.1.15,2013-02-22 23:40:00,
2013-02-22 18:45:00,37.4,35.6,30.09,NE,37,2.0,2.0,93,0.00,,,0.33,Wunderground v.1.15,2013-02-22 23:45:00,
2013-02-22 18:55:00,37.3,35.5,30.09,NNE,13,1.0,1.0,93,0.00,,,0.34,Wunderground v.1.15,2013-02-22 23:55:00,
2013-02-22 19:00:00,37.3,35.5,30.09,NNE,15,1.0,2.0,93,0.00,,,0.34,Wunderground v.1.15,2013-02-23 00:00:00,
2013-02-22 19:10:00,37.3,35.5,30.08,NE,45,1.0,3.0,93,0.00,,,0.34,Wunderground v.1.15,2013-02-23 00:10:00,
2013-02-22 19:15:00,37.3,35.5,30.08,NE,45,1.0,3.0,93,0.00,,,0.34,Wunderground v.1.15,2013-02-23 00:15:00,
2013-02-22 19:24:00,37.3,35.5,30.07,East,82,1.0,3.0,93,0.00,,,0.34,Wunderground v.1.15,2013-02-23 00:24:00,
2013-02-22 19:35:00,37.3,35.7,30.07,East,94,1.0,3.0,94,0.00,,,0.34,Wunderground v.1.15,2013-02-23 00:35:00,
2013-02-22 19:44:00,37.2,35.6,30.07,SE,140,1.0,3.0,94,0.00,,,0.34,Wunderground v.1.15,2013-02-23 00:44:00,
2013-02-22 19:50:00,37.2,35.6,30.07,ENE,77,1.0,1.0,94,0.00,,,0.34,Wunderground v.1.15,2013-02-23 00:50:00,
2013-02-22 20:00:00,37.2,35.6,30.08,North,5,2.0,3.0,94,0.00,,,0.34,Wunderground v.1.15,2013-02-23 01:00:00,
2013-02-22 20:05:00,37.2,35.6,30.09,North,360,2.0,3.0,94,0.00,,,0.34,Wunderground v.1.15,2013-02-23 01:05:00,
2013-02-22 20:10:00,37.2,35.6,30.08,NE,41,2.0,3.0,94,0.00,,,0.34,Wunderground v.1.15,2013-02-23 01:10:00,
2013-02-22 20:15:00,37.1,35.5,30.08,NNE,27,2.0,4.0,94,0.00,,,0.34,Wunderground v.1.15,2013-02-23 01:15:00,
2013-02-22 20:20:00,37.1,35.5,30.07,NNE,29,2.0,2.0,94,0.00,,,0.34,Wunderground v.1.15,2013-02-23 01:20:00,
2013-02-22 20:30:00,37.1,35.5,30.08,NNE,23,1.0,2.0,94,0.00,,,0.34,Wunderground v.1.15,2013-02-23 01:30:00,
2013-02-22 20:35:00,37.0,35.4,30.08,ENE,66,2.0,3.0,94,0.00,,,0.34,Wunderground v.1.15,2013-02-23 01:35:00,
2013-02-22 20:40:00,37.0,35.4,30.09,North,360,2.0,3.0,94,0.00,,,0.34,Wunderground v.1.15,2013-02-23 01:40:00,
2013-02-22 20:50:00,37.0,35.4,30.09,NNE,22,2.0,2.0,94,0.00,,,0.34,Wunderground v.1.15,2013-02-23 01:50:00,
2013-02-22 20:55:00,37.0,35.4,30.09,NNE,18,2.0,2.0,94,0.00,,,0.34,Wunderground v.1.15,2013-02-23 01:55:00,
2013-02-22 21:05:00,37.0,35.4,30.08,NE,34,2.0,2.0,94,0.00,,,0.35,Wunderground v.1.15,2013-02-23 02:05:00,
2013-02-22 21:10:00,37.0,35.4,30.08,NE,35,1.0,2.0,94,0.00,,,0.35,Wunderground v.1.15,2013-02-23 02:10:00,
2013-02-22 21:15:00,36.9,35.3,30.07,NNE,27,1.0,2.0,94,0.00,,,0.35,Wunderground v.1.15,2013-02-23 02:15:00,
2013-02-22 21:20:00,36.9,35.3,30.07,NNE,26,2.0,2.0,94,0.00,,,0.35,Wunderground v.1.15,2013-02-23 02:20:00,
2013-02-22 21:25:00,36.9,35.3,30.08,NNE,25,1.0,2.0,94,0.00,,,0.35,Wunderground v.1.15,2013-02-23 02:25:00,
2013-02-22 21:30:00,36.9,35.3,30.07,NNE,12,2.0,2.0,94,0.00,,,0.35,Wunderground v.1.15,2013-02-23 02:30:00,
2013-02-22 21:35:00,36.8,35.2,30.07,NNE,12,2.0,2.0,94,0.00,,,0.35,Wunderground v.1.15,2013-02-23 02:35:00,
2013-02-22 21:40:00,36.8,35.2,30.07,NNE,24,2.0,2.0,94,0.00,,,0.35,Wunderground v.1.15,2013-02-23 02:40:00,
2013-02-22 21:45:00,36.8,35.2,30.07,NNE,33,1.0,2.0,94,0.00,,,0.35,Wunderground v.1.15,2013-02-23 02:45:00,
2013-02-22 21:50:00,36.8,35.2,30.06,NNE,33,1.0,1.0,94,0.00,,,0.35,Wunderground v.1.15,2013-02-23 02:50:00,
2013-02-22 21:55:00,36.8,35.2,30.05,East,80,1.0,1.0,94,0.00,,,0.35,Wunderground v.1.15,2013-02-23 02:55:00,
2013-02-22 22:00:00,36.8,35.2,30.06,East,79,1.0,2.0,94,0.00,,,0.35,Wunderground v.1.15,2013-02-23 03:00:00,
2013-02-22 22:10:00,36.9,35.3,30.07,NNE,12,2.0,2.0,94,0.00,,,0.36,Wunderground v.1.15,2013-02-23 03:10:00,
2013-02-22 22:15:00,36.8,35.2,30.07,NNE,24,2.0,3.0,94,0.00,,,0.36,Wunderground v.1.15,2013-02-23 03:15:00,
2013-02-22 22:20:00,36.9,35.3,30.06,NNE,24,1.0,1.0,94,0.00,,,0.36,Wunderground v.1.15,2013-02-23 03:20:00,
2013-02-22 22:25:00,36.8,35.2,30.05,ENE,67,1.0,3.0,94,0.00,,,0.36,Wunderground v.1.15,2013-02-23 03:25:00,
2013-02-22 22:30:00,36.8,35.2,30.05,ENE,66,0.0,3.0,94,0.00,,,0.36,Wunderground v.1.15,2013-02-23 03:30:00,
2013-02-22 22:40:00,36.8,35.2,30.06,NNW,346,2.0,3.0,94,0.00,,,0.36,Wunderground v.1.15,2013-02-23 03:40:00,
2013-02-22 22:45:00,36.8,35.2,30.06,North,11,3.0,3.0,94,0.00,,,0.36,Wunderground v.1.15,2013-02-23 03:45:00,
2013-02-22 22:50:00,36.8,35.2,30.07,NNE,19,3.0,3.0,94,0.00,,,0.36,Wunderground v.1.15,2013-02-23 03:50:00,
2013-02-22 22:55:00,36.7,35.1,30.07,NNW,328,4.0,4.0,94,0.00,,,0.36,Wunderground v.1.15,2013-02-23 03:55:00,
2013-02-22 23:00:00,36.7,35.4,30.06,North,349,4.0,4.0,95,0.00,,,0.36,Wunderground v.1.15,2013-02-23 04:00:00,
2013-02-22 23:05:00,36.6,35.3,30.06,North,349,3.0,4.0,95,0.18,,,0.01,Wunderground v.1.15,2013-02-23 04:05:00,
2013-02-22 23:15:00,36.6,35.3,30.06,NNW,346,2.0,3.0,95,0.06,,,0.02,Wunderground v.1.15,2013-02-23 04:15:00,
2013-02-22 23:20:00,36.6,35.3,30.06,NNW,340,2.0,4.0,95,0.04,,,0.02,Wunderground v.1.15,2013-02-23 04:20:00,
2013-02-22 23:30:00,36.6,35.3,30.05,NNE,12,2.0,3.0,95,0.40,,,0.05,Wunderground v.1.15,2013-02-23 04:30:00,
2013-02-22 23:35:00,36.6,35.3,30.05,NNE,23,2.0,3.0,95,0.11,,,0.05,Wunderground v.1.15,2013-02-23 04:35:00,
2013-02-22 23:44:00,36.5,35.2,30.04,North,5,2.0,3.0,95,0.04,,,0.05,Wunderground v.1.15,2013-02-23 04:44:00,
2013-02-22 23:49:00,36.6,35.3,30.03,NNE,29,1.0,1.0,95,0.00,,,0.05,Wunderground v.1.15,2013-02-23 04:49:00,
2013-02-22 23:55:00,36.6,35.3,30.03,NNE,18,1.0,2.0,95,0.00,,,0.06,Wunderground v.1.15,2013-02-23 04:55:00,